Location: Chimay
(50.0486°N, 4.3171°E)
Time: 05:42:56
(UTC+00:00)

Cosmos 968 Rocket - Pass Details

Date: 08 August 2020
Orbit: 740 x 772 km, 74.0° (Epoch: 23 September)

Event Time Altitude Azimuth Distance (km) Brightness Sun altitude
Exits shadow 22:58:58 33° 99° (E) 1,227 4.3 -23.3°
Drops below altitude 10° 23:03:23 10° 40° (NE) 2,266 6.4 -23.4°
Sets 23:05:56 0° 31° (NNE) 3,198 7.4 -23.5°
